Tracking 28926 objects as of 23-May-2024
HD Live streaming from Space Station
objects crossing your sky now

STARLINK-3819

Track STARLINK-3819 now!
10-day predictions
STARLINK-3819 is classified as:


NORAD ID: 52349
Int'l Code: 2022-045U
Perigee: 546.1 km
Apogee: 547.7 km
Inclination: 53.2 °
Period: 95.4 minutes
Semi major axis: 6917 km
RCS: Unknown
Launch date: April 29, 2022
Source: United States (US)
Launch site: AIR FORCE EASTERN TEST RANGE (AFETR)
Your satellite tracking list
Your tracking list is empty




NASA's NSSDC Master Catalog

Two Line Element Set (TLE):
1 52349U 22045U   24144.59670747  .00001187  00000-0  92648-4 0  9996
2 52349  53.2168 259.9455 0001147  87.5468 272.5655 15.08839672116885
Source of the keplerian elements: AFSPC